Flag for Colombia Weather past 2 weeks in Cali, Colombia

Now
77 °F

Partly cloudy.


Feels Like: 79 °F
Forecast: N/A
Wind: 12 mph from North

Location: Cali / Alfonso Bonillaaragon

Current Time: Oct 25, 2014 at 6:42:19 PM

Latest Report: Oct 25, 2014 at 6:00 PM


Visibility: 6 mi

Pressure: 29.91 "Hg

Humidity: 69%

Dew point: 66 °F

Location of CaliLocation

Historic Weather in Cali — Graph

°F

Cali temperature yesterday

Maximum temperature yesterday: 88 °F (at 2:00 PM)
Minimum temperature yesterday: 68 °F (at 4:00 AM)
Average temperature yesterday: 75 °F

Past Weeks' High & Low Weather Summary

 TemperatureHumidityPressure
High91 °F (Oct 16, 2:00 PM)100% (Oct 21, 5:00 AM)30.11 "Hg (Oct 21, 5:00 AM)
Low64 °F (Oct 12, 5:00 AM)33% (Oct 16, 1:00 PM)29.81 "Hg (Oct 18, 3:00 PM)
Average75 °F74%29.98 "Hg
* Reported Oct 10 5:00 PM — Oct 25 5:00 PM, Cali, Weather by CustomWeather, © 2014

Note: Actual official high and low records may vary slightly from our data, if they occured in-between our weather recording intervals... More about our weather records

Advertising

Cali weather history for previous 24 hours

 ConditionsComfort  
Time TempWeatherWind HumidityBarometerVisibility
5:00 PM
Oct 25
81 °FScattered showers. Broken clouds.16 mph58%29.89 "Hg6 mi
4:00 PM79 °FScattered showers. Broken clouds.12 mph65%29.88 "Hg6 mi
3:00 PM86 °FScattered showers. Scattered clouds.6 mph49%29.88 "Hg6 mi
2:00 PM86 °FScattered clouds.6 mph49%29.91 "HgN/A
1:00 PM84 °FScattered clouds.5 mph51%29.96 "HgN/A
12:00 PM81 °FScattered clouds.3 mph58%30.01 "HgN/A
11:00 AM79 °FScattered clouds.3 mph58%30.05 "HgN/A
10:00 AM77 °FScattered clouds.5 mph65%30.08 "HgN/A
9:00 AM72 °FBroken clouds.No wind83%30.10 "HgN/A
8:00 AM70 °FBroken clouds.No wind88%30.09 "Hg5 mi
7:00 AM70 °FBroken clouds.No wind88%30.06 "Hg4 mi
6:00 AM68 °FMild.No wind94%30.04 "HgN/A
5:00 AM68 °FMostly cloudy.No wind94%30.02 "Hg4 mi
4:00 AM70 °FMostly cloudy.5 mph88%30.00 "Hg4 mi
3:00 AM70 °FMostly cloudy.3 mph88%30.00 "Hg5 mi
2:00 AM70 °FMostly cloudy.2 mph88%30.00 "Hg6 mi
1:00 AM70 °FOvercast.No wind88%30.02 "Hg6 mi
12:00 AM72 °FOvercast.No wind83%30.04 "HgN/A
11:00 PM
Oct 24
70 °FOvercast.No wind83%30.04 "Hg6 mi
10:00 PM72 °FMostly cloudy.2 mph83%30.04 "Hg6 mi
9:00 PM70 °FOvercast.3 mph83%30.02 "HgN/A
8:00 PM70 °FOvercast.7 mph83%29.99 "HgN/A
7:00 PM73 °FMostly cloudy.No wind78%29.96 "HgN/A
6:00 PM75 °FPassing clouds.7 mph74%29.92 "HgN/A
Weather by CustomWeather, © 2014

See weather overviewHow to use our weather pages